Hill AFB, UT

3:40 PM MST on December 06, 2016 (GMT -0700)
Hill Air Force Base

Weather History for KHIF - November, 2012

Change the Weather History Date:

Saturday, November 10, 2012

  Actual Average Record
Temperature  
Mean Temperature 26 °F -  
Max Temperature 31 °F 45 °F 62 °F (2007)
Min Temperature 21 °F 31 °F 21 °F (2000)
Degree Days  
Heating Degree Days 39    
Moisture  
Dew Point 26 °F    
Average Humidity 95    
Maximum Humidity 100    
Minimum Humidity 67    
Precipitation  
Precipitation 0.14 in - - ()
Sea Level Pressure  
Sea Level Pressure 29.84 in    
Wind  
Wind Speed 2 mph (South)    
Max Wind Speed 12 mph    
Max Gust Speed -    
Visibility 4 miles    
Events Fog , Snow    
Averages and records for this station are not official NWS values.
T = Trace of Precipitation, MM = Missing Value Source: NWS Daily Summary

Daily Weather History Graph

Daily Weather History Graph

Search for Another Location

Airport or City:

Trip Planner

Search our weather history database for the weather conditions in past years. The results will help you decide how hot, cold, wet, or windy it might be!

Date:

Astronomy

Nov. 10, 2012 Rise Set
Actual Time 7:10 AM MST 5:12 PM MST
Civil Twilight 6:41 AM MST 5:42 PM MST
Nautical Twilight 6:08 AM MST 6:15 PM MST
Astronomical Twilight 5:35 AM MST 6:47 PM MST
Moon 3:17 AM MST (11/10) 3:03 PM MST (11/10)
Length of Visible Light 11h 01m
Length of Day
10h 02m
Waning Crescent, 14% of the Moon is Illuminated
Nov 10
Waning Crescent
Nov 13
New
Nov 20
First Quarter
Nov 28
Full
Dec 6
Last Quarter

Hourly Weather History & Observations

Time (MST) Temp. Windchill Dew Point Humidity Pressure Visibility Wind Dir Wind Speed Gust Speed Precip Events Conditions
12:29 AM 28.4 °F 24.6 °F 28.4 °F 100% 29.71 in 1.8 mi NW 3.5 mph - N/A Snow Light Snow
12:31 AM 28.4 °F 24.6 °F 28.4 °F 100% 29.71 in 1.8 mi NNW 3.5 mph - N/A Snow Light Snow
12:32 AM 28.4 °F 23.3 °F 28.4 °F 100% 29.71 in 2.0 mi NNW 4.6 mph - N/A Snow Light Snow
12:37 AM 28.4 °F 23.3 °F 28.4 °F 100% 29.69 in 3.0 mi NNW 4.6 mph - N/A Snow Light Snow
12:44 AM 28.4 °F - 28.4 °F 100% 29.69 in 4.0 mi Calm Calm - N/A Snow Light Snow
12:46 AM 28.4 °F - 28.4 °F 100% 29.69 in 5.0 mi Calm Calm - N/A Snow Light Snow
12:53 AM 28.4 °F - 28.4 °F 100% 29.69 in 7.0 mi Calm Calm - N/A Snow Light Snow
12:54 AM 28.4 °F - 28.4 °F 100% 29.69 in 7.0 mi Calm Calm - N/A Snow Light Snow
12:55 AM 29.1 °F - 28.6 °F 98% 29.69 in 8.0 mi Calm Calm - 0.02 in Snow Light Snow
1:04 AM 28.4 °F 24.6 °F 28.4 °F 100% 29.69 in 10.0 mi WNW 3.5 mph - N/A   Mostly Cloudy
1:06 AM 28.4 °F 24.6 °F 28.4 °F 100% 29.69 in 10.0 mi WNW 3.5 mph - N/A Snow Light Snow
1:21 AM 28.4 °F 24.6 °F 28.4 °F 100% 29.69 in 4.0 mi West 3.5 mph - N/A Snow Light Snow
1:25 AM 28.4 °F 24.6 °F 28.4 °F 100% 29.69 in 4.0 mi WSW 3.5 mph - N/A Snow Light Snow
1:33 AM 28.4 °F - 28.4 °F 100% 29.70 in 2.5 mi Calm Calm - N/A Snow Light Snow
1:38 AM 28.4 °F - 28.4 °F 100% 29.68 in 2.0 mi Calm Calm - N/A Snow Light Snow
1:54 AM 28.4 °F - 28.4 °F 100% 29.68 in 2.5 mi Calm Calm - N/A Snow Light Snow
1:55 AM 29.1 °F - 28.6 °F 98% 29.70 in 3.0 mi Calm Calm - 0.01 in Snow Light Snow
1:59 AM 28.4 °F - 28.4 °F 100% 29.68 in 3.0 mi Calm Calm - N/A Snow Light Snow
2:02 AM 28.4 °F - 28.4 °F 100% 29.70 in 4.0 mi Calm Calm - N/A Snow Light Snow
2:07 AM 28.4 °F - 28.4 °F 100% 29.70 in 4.0 mi Calm Calm - N/A Snow Light Snow
2:10 AM 28.4 °F - 28.4 °F 100% 29.70 in 3.0 mi Calm Calm - N/A Snow Light Snow
2:14 AM 28.4 °F - 28.4 °F 100% 29.70 in 2.5 mi Calm Calm - N/A Snow Light Snow
2:21 AM 28.4 °F - 28.4 °F 100% 29.70 in 2.0 mi Calm Calm - N/A Snow Light Snow
2:26 AM 28.4 °F - 28.4 °F 100% 29.70 in 1.8 mi Calm Calm - N/A Snow Light Snow
2:32 AM 30.2 °F - 28.4 °F 93% 29.70 in 1.5 mi Calm Calm - N/A Snow Light Snow
2:37 AM 30.2 °F - 28.4 °F 93% 29.70 in 1.5 mi Calm Calm - N/A Snow Light Snow
2:41 AM 30.2 °F - 28.4 °F 93% 29.70 in 1.2 mi Calm Calm - N/A Snow Light Snow
2:45 AM 30.2 °F - 28.4 °F 93% 29.70 in 1.0 mi Calm Calm - N/A Snow Light Snow
2:55 AM 29.3 °F - 28.8 °F 98% 29.70 in 1.2 mi Calm Calm - 0.03 in Snow Light Snow
2:58 AM 28.4 °F - 28.4 °F 100% 29.70 in 1.5 mi Calm Calm - N/A Snow Light Snow
2:59 AM 28.4 °F - 28.4 °F 100% 29.70 in 1.8 mi Calm Calm - N/A Snow Light Snow
3:00 AM 28.4 °F - 28.4 °F 100% 29.70 in 2.0 mi Calm Calm - N/A Snow Light Snow
3:01 AM 28.4 °F - 28.4 °F 100% 29.70 in 2.0 mi Calm Calm - N/A Snow Light Snow
3:03 AM 28.4 °F - 28.4 °F 100% 29.70 in 3.0 mi Calm Calm - N/A Snow Light Snow
3:06 AM 28.4 °F - 28.4 °F 100% 29.70 in 5.0 mi Calm Calm - N/A Snow Light Snow
3:20 AM 30.2 °F - 28.4 °F 93% 29.68 in 4.0 mi Calm Calm - N/A Snow Light Snow
3:25 AM 28.4 °F - 28.4 °F 100% 29.68 in 3.0 mi Calm Calm - N/A Snow Light Snow
3:30 AM 28.4 °F - 28.4 °F 100% 29.68 in 4.0 mi Calm Calm - N/A Snow Light Snow
3:34 AM 28.4 °F - 28.4 °F 100% 29.68 in 5.0 mi Calm Calm - N/A Snow Light Snow
3:38 AM 28.4 °F - 28.4 °F 100% 29.68 in 6.0 mi Calm Calm - N/A Snow Light Snow
3:41 AM 28.4 °F - 28.4 °F 100% 29.68 in 5.0 mi Calm Calm - N/A Snow Light Snow
3:43 AM 28.4 °F - 28.4 °F 100% 29.68 in 4.0 mi Calm Calm - N/A Snow Light Snow
3:48 AM 28.4 °F - 28.4 °F 100% 29.70 in 2.5 mi Calm Calm - N/A Snow Light Snow
3:51 AM 28.4 °F - 28.4 °F 100% 29.69 in 2.0 mi Calm Calm - N/A Snow Light Snow
3:55 AM 28.9 °F - 28.4 °F 98% 29.69 in 2.0 mi Calm Calm - 0.01 in Snow Light Snow
3:56 AM 28.4 °F - 28.4 °F 100% 29.70 in 2.0 mi Calm Calm - N/A Snow Light Snow
4:04 AM 28.4 °F - 28.4 °F 100% 29.70 in 2.5 mi Calm Calm - N/A Snow Light Snow
4:07 AM 28.4 °F - 28.4 °F 100% 29.70 in 1.8 mi Calm Calm - N/A Snow Light Snow
4:08 AM 28.4 °F - 28.4 °F 100% 29.70 in 1.5 mi Calm Calm - N/A Snow Light Snow
4:09 AM 28.4 °F - 28.4 °F 100% 29.70 in 1.2 mi Calm Calm - N/A Snow Light Snow
4:10 AM 28.4 °F - 28.4 °F 100% 29.70 in 1.0 mi Calm Calm - N/A Snow Light Snow
4:12 AM 28.4 °F - 28.4 °F 100% 29.70 in 0.8 mi Calm Calm - N/A Snow Light Snow
4:16 AM 28.4 °F - 28.4 °F 100% 29.70 in 0.5 mi Calm Calm - N/A Fog , Snow Light Freezing Fog
4:18 AM 28.4 °F - 28.4 °F 100% 29.70 in 0.5 mi Calm Calm - N/A Fog , Snow Light Freezing Fog
4:19 AM 28.4 °F - 28.4 °F 100% 29.70 in 0.5 mi Calm Calm - N/A Fog , Snow Light Freezing Fog
4:22 AM 28.4 °F - 28.4 °F 100% 29.70 in 0.5 mi Calm Calm - N/A Fog , Snow Light Freezing Fog
4:24 AM 28.4 °F - 28.4 °F 100% 29.70 in 0.8 mi Calm Calm - N/A Snow Light Snow
4:25 AM 28.4 °F - 28.4 °F 100% 29.70 in 0.8 mi Calm Calm - N/A Snow Light Snow
4:29 AM 28.4 °F - 28.4 °F 100% 29.70 in 1.0 mi Calm Calm - N/A Snow Light Snow
4:31 AM 28.4 °F - 28.4 °F 100% 29.70 in 1.2 mi Calm Calm - N/A Snow Light Snow
4:33 AM 28.4 °F - 28.4 °F 100% 29.70 in 1.5 mi Calm Calm - N/A Snow Light Snow
4:34 AM 28.4 °F - 28.4 °F 100% 29.70 in 1.8 mi Calm Calm - N/A Snow Light Snow
4:35 AM 28.4 °F - 28.4 °F 100% 29.70 in 1.8 mi Calm Calm - N/A Snow Light Snow
4:36 AM 28.4 °F - 28.4 °F 100% 29.70 in 2.0 mi Calm Calm - N/A Snow Light Snow
4:37 AM 28.4 °F - 28.4 °F 100% 29.70 in 2.0 mi Calm Calm - N/A Snow Light Snow
4:44 AM 28.4 °F - 28.4 °F 100% 29.70 in 2.0 mi Calm Calm - N/A Snow Light Snow
4:46 AM 28.4 °F - 28.4 °F 100% 29.70 in 2.0 mi Calm Calm - N/A Snow Light Snow
4:51 AM 28.4 °F - 28.4 °F 100% 29.70 in 2.5 mi Calm Calm - N/A Snow Light Snow
4:52 AM 28.4 °F - 28.4 °F 100% 29.70 in 3.0 mi Calm Calm - N/A Snow Light Snow
4:55 AM 28.9 °F - 28.8 °F 99% 29.71 in 3.0 mi Calm Calm - 0.03 in Snow Light Snow
5:00 AM 28.4 °F - 28.4 °F 100% 29.71 in 2.5 mi Calm Calm - N/A Snow Light Snow
5:05 AM 28.4 °F - 28.4 °F 100% 29.71 in 1.8 mi Calm Calm - N/A Snow Light Snow
5:08 AM 28.4 °F - 28.4 °F 100% 29.71 in 2.0 mi Calm Calm - N/A Snow Light Snow
5:11 AM 28.4 °F - 28.4 °F 100% 29.72 in 2.5 mi Calm Calm - N/A Snow Light Snow
5:13 AM 28.4 °F - 28.4 °F 100% 29.72 in 3.0 mi Calm Calm - N/A Snow Light Snow
5:23 AM 28.4 °F - 28.4 °F 100% 29.72 in 3.0 mi Calm Calm - N/A Snow Light Snow
5:24 AM 28.4 °F - 28.4 °F 100% 29.72 in 2.5 mi Calm Calm - N/A Snow Light Snow
5:27 AM 28.4 °F - 28.4 °F 100% 29.72 in 3.0 mi Calm Calm - N/A Snow Light Snow
5:31 AM 28.4 °F - 28.4 °F 100% 29.72 in 4.0 mi Calm Calm - N/A Snow Light Snow
5:33 AM 28.4 °F - 28.4 °F 100% 29.72 in 5.0 mi Calm Calm - N/A Snow Light Snow
5:39 AM 28.4 °F - 28.4 °F 100% 29.72 in 6.0 mi Calm Calm - N/A Snow Light Snow
5:47 AM 28.4 °F - 28.4 °F 100% 29.72 in 10.0 mi Calm Calm - N/A   Overcast
5:52 AM 28.4 °F - 28.4 °F 100% 29.72 in 10.0 mi Calm Calm - N/A   Overcast
5:55 AM 28.9 °F - 28.8 °F 99% 29.72 in 9.0 mi Calm Calm - 0.01 in   Overcast
5:56 AM 28.4 °F - 28.4 °F 100% 29.72 in 7.0 mi Calm Calm - N/A Snow Light Snow
5:59 AM 28.4 °F - 28.4 °F 100% 29.72 in 4.0 mi Calm Calm - N/A Snow Light Snow
6:01 AM 28.4 °F - 28.4 °F 100% 29.72 in 3.0 mi Calm Calm - N/A Snow Light Snow
6:02 AM 28.4 °F - 28.4 °F 100% 29.72 in 2.5 mi Calm Calm - N/A Snow Light Snow
6:03 AM 28.4 °F - 28.4 °F 100% 29.73 in 2.5 mi Calm Calm - N/A Snow Light Snow
6:04 AM 28.4 °F - 28.4 °F 100% 29.73 in 2.0 mi Calm Calm - N/A Snow Light Snow
6:05 AM 28.4 °F - 28.4 °F 100% 29.73 in 2.0 mi Calm Calm - N/A Snow Light Snow
6:07 AM 28.4 °F - 28.4 °F 100% 29.73 in 1.8 mi Calm Calm - N/A Snow Light Snow
6:10 AM 28.4 °F - 28.4 °F 100% 29.73 in 1.5 mi Calm Calm - N/A Snow Light Snow
6:12 AM 28.4 °F - 28.4 °F 100% 29.73 in 1.2 mi Calm Calm - N/A Snow Light Snow
6:14 AM 28.4 °F - 28.4 °F 100% 29.73 in 1.2 mi Calm Calm - N/A Snow Light Snow
6:18 AM 28.4 °F - 28.4 °F 100% 29.73 in 1.5 mi Calm Calm - N/A Snow Light Snow
6:21 AM 28.4 °F - 28.4 °F 100% 29.73 in 1.8 mi Calm Calm - N/A Snow Light Snow
6:22 AM 28.4 °F - 28.4 °F 100% 29.73 in 2.0 mi Calm Calm - N/A Snow Light Snow
6:23 AM 28.4 °F - 28.4 °F 100% 29.73 in 2.0 mi Calm Calm - N/A Snow Light Snow
6:27 AM 28.4 °F - 28.4 °F 100% 29.73 in 2.5 mi Calm Calm - N/A Snow Light Snow
6:28 AM 28.4 °F - 28.4 °F 100% 29.73 in 3.0 mi Calm Calm - N/A Snow Light Snow
6:31 AM 28.4 °F - 28.4 °F 100% 29.73 in 2.5 mi Calm Calm - N/A Snow Light Snow
6:36 AM 28.4 °F - 28.4 °F 100% 29.73 in 2.0 mi Calm Calm - N/A Snow Light Snow
6:41 AM 28.4 °F - 28.4 °F 100% 29.73 in 2.0 mi Calm Calm - N/A Snow Light Snow
6:44 AM 28.4 °F - 28.4 °F 100% 29.73 in 2.5 mi Calm Calm - N/A Snow Light Snow
6:45 AM 28.4 °F - 28.4 °F 100% 29.73 in 3.0 mi Calm Calm - N/A Snow Light Snow
6:50 AM 28.4 °F - 28.4 °F 100% 29.73 in 5.0 mi Calm Calm - N/A Snow Light Snow
6:55 AM 28.9 °F - 28.8 °F 99% 29.73 in 7.0 mi Calm Calm - 0.01 in Snow Light Snow
6:58 AM 28.4 °F - 28.4 °F 100% 29.73 in 7.0 mi Calm Calm - N/A Snow Light Snow
6:59 AM 28.4 °F - 28.4 °F 100% 29.73 in 7.0 mi Calm Calm - N/A Snow Light Snow
7:07 AM 28.4 °F - 28.4 °F 100% 29.74 in 9.0 mi Calm Calm - N/A Snow Light Snow
7:10 AM 28.4 °F - 28.4 °F 100% 29.74 in 10.0 mi Calm Calm - N/A Snow Light Snow
7:21 AM 28.4 °F - 28.4 °F 100% 29.75 in 6.0 mi Calm Calm - N/A Snow Light Snow
7:23 AM 28.4 °F - 28.4 °F 100% 29.75 in 4.0 mi Calm Calm - N/A Snow Light Snow
7:26 AM 28.4 °F - 28.4 °F 100% 29.75 in 2.5 mi Calm Calm - N/A Snow Light Snow
7:28 AM 28.4 °F - 28.4 °F 100% 29.75 in 1.8 mi Calm Calm - N/A Snow Light Snow
7:29 AM 28.4 °F - 28.4 °F 100% 29.75 in 1.5 mi Calm Calm - N/A Snow Light Snow
7:31 AM 28.4 °F - 28.4 °F 100% 29.75 in 1.2 mi Calm Calm - N/A Snow Light Snow
7:39 AM 28.4 °F - 28.4 °F 100% 29.75 in 1.5 mi Calm Calm - N/A Snow Light Snow
7:40 AM 28.4 °F - 28.4 °F 100% 29.75 in 1.5 mi Calm Calm - N/A Snow Light Snow
7:41 AM 28.4 °F - 28.4 °F 100% 29.75 in 1.8 mi Calm Calm - N/A Snow Light Snow
7:42 AM 28.4 °F - 28.4 °F 100% 29.75 in 2.0 mi Calm Calm - N/A Snow Light Snow
7:46 AM 28.4 °F - 28.4 °F 100% 29.76 in 3.0 mi Calm Calm - N/A Snow Light Snow
7:55 AM 28.9 °F - 28.8 °F 99% 29.76 in 3.0 mi Calm Calm - 0.01 in Snow Light Snow
7:56 AM 28.4 °F - 28.4 °F 100% 29.76 in 3.0 mi Calm Calm - N/A Snow Light Snow
7:57 AM 28.4 °F - 28.4 °F 100% 29.76 in 2.5 mi Calm Calm - N/A Snow Light Snow
8:04 AM 28.4 °F - 28.4 °F 100% 29.76 in 1.8 mi Calm Calm - N/A Snow Light Snow
8:15 AM 28.4 °F - 28.4 °F 100% 29.76 in 2.0 mi Calm Calm - N/A Snow Light Snow
8:20 AM 28.4 °F - 28.4 °F 100% 29.76 in 3.0 mi Calm Calm - N/A Snow Light Snow
8:25 AM 28.4 °F - 28.4 °F 100% 29.77 in 5.0 mi Calm Calm - N/A Snow Light Snow
8:33 AM 28.4 °F - 28.4 °F 100% 29.77 in 9.0 mi Calm Calm - N/A Snow Light Snow
8:41 AM 28.4 °F - 28.4 °F 100% 29.77 in 10.0 mi Calm Calm - N/A   Mostly Cloudy
8:47 AM 28.4 °F - 28.4 °F 100% 29.77 in 10.0 mi Calm Calm - N/A   Mostly Cloudy
8:53 AM 28.4 °F - 28.4 °F 100% 29.78 in 10.0 mi Calm Calm - N/A   Mostly Cloudy
8:55 AM 29.1 °F - 28.4 °F 97% 29.78 in 10.0 mi Calm Calm - 0.00 in   Mostly Cloudy
9:00 AM 28.4 °F - 28.4 °F 100% 29.78 in 10.0 mi Calm Calm - N/A   Overcast
9:08 AM 28.4 °F - 28.4 °F 100% 29.80 in 10.0 mi Calm Calm - N/A   Overcast
9:09 AM 28.4 °F - 28.4 °F 100% 29.80 in 10.0 mi Calm Calm - N/A   Overcast
9:18 AM 28.4 °F - 26.6 °F 93% 29.80 in 10.0 mi Calm Calm - N/A   Overcast
9:23 AM 28.4 °F - 26.6 °F 93% 29.80 in 10.0 mi Calm Calm - N/A   Overcast
9:25 AM 28.4 °F - 26.6 °F 93% 29.80 in 10.0 mi Calm Calm - N/A   Overcast
9:28 AM 28.4 °F - 26.6 °F 93% 29.80 in 10.0 mi Calm Calm - N/A   Overcast
9:34 AM 28.4 °F - 26.6 °F 93% 29.81 in 10.0 mi Calm Calm - N/A   Mostly Cloudy
9:35 AM 28.4 °F - 26.6 °F 93% 29.81 in 10.0 mi Calm Calm - N/A   Mostly Cloudy
9:54 AM 28.4 °F - 24.8 °F 86% 29.81 in 10.0 mi Calm Calm - N/A   Scattered Clouds
9:55 AM 28.0 °F - 24.6 °F 87% 29.81 in 10.0 mi Calm Calm - N/A   Scattered Clouds
10:55 AM 29.3 °F 23.2 °F 25.2 °F 85% 29.83 in 10.0 mi NNW 5.8 mph - N/A   Scattered Clouds
10:57 AM 28.4 °F 21.2 °F 24.8 °F 86% 29.83 in 10.0 mi NNW 6.9 mph - N/A   Mostly Cloudy
11:36 AM 30.2 °F 21.9 °F 23.0 °F 75% 29.84 in 10.0 mi NW 9.2 mph - N/A   Scattered Clouds
11:55 AM 31.3 °F 23.9 °F 22.8 °F 71% 29.84 in 10.0 mi NNW 8.1 mph - N/A   Clear
12:06 PM 30.2 °F 23.4 °F 23.0 °F 75% 29.84 in 10.0 mi North 6.9 mph - N/A   Mostly Cloudy
12:45 PM 30.2 °F 22.6 °F 23.0 °F 75% 29.85 in 10.0 mi NNW 8.1 mph - N/A   Overcast
12:55 PM 30.7 °F 24.1 °F 23.5 °F 75% 29.85 in 10.0 mi NNW 6.9 mph - N/A   Overcast
1:55 PM 30.6 °F 25.8 °F 20.7 °F 67% 29.86 in 10.0 mi WSW 4.6 mph - N/A   Overcast
1:56 PM 30.2 °F 24.3 °F 21.2 °F 69% 29.86 in 10.0 mi WSW 5.8 mph - N/A   Overcast
1:57 PM 30.2 °F 24.3 °F 21.2 °F 69% 29.86 in 10.0 mi WSW 5.8 mph - N/A   Overcast
2:00 PM 30.2 °F 23.4 °F 21.2 °F 69% 29.87 in 10.0 mi WSW 6.9 mph - N/A   Overcast
2:14 PM 30.2 °F 22.6 °F 23.0 °F 75% 29.87 in 4.0 mi WNW 8.1 mph - N/A Snow Light Snow
2:16 PM 30.2 °F 21.9 °F 23.0 °F 75% 29.87 in 2.5 mi West 9.2 mph - N/A Snow Light Snow
2:18 PM 30.2 °F 22.6 °F 23.0 °F 75% 29.87 in 1.8 mi West 8.1 mph - N/A Snow Light Snow
2:19 PM 30.2 °F 22.6 °F 23.0 °F 75% 29.87 in 1.5 mi West 8.1 mph - N/A Snow Light Snow
2:20 PM 28.4 °F 19.7 °F 23.0 °F 80% 29.87 in 1.2 mi West 9.2 mph - N/A Snow Light Snow
2:22 PM 28.4 °F 20.4 °F 23.0 °F 80% 29.88 in 1.2 mi West 8.1 mph - N/A Snow Light Snow
2:23 PM 28.4 °F 20.4 °F 23.0 °F 80% 29.88 in 1.0 mi West 8.1 mph - N/A Snow Light Snow
2:26 PM 28.4 °F 21.2 °F 24.8 °F 86% 29.89 in 1.0 mi West 6.9 mph - N/A Snow Light Snow
2:28 PM 28.4 °F 22.2 °F 24.8 °F 86% 29.89 in 1.0 mi WSW 5.8 mph - N/A Snow Light Snow
2:32 PM 28.4 °F 22.2 °F 24.8 °F 86% 29.89 in 1.2 mi SW 5.8 mph - N/A Snow Light Snow
2:34 PM 28.4 °F 20.4 °F 24.8 °F 86% 29.89 in 1.5 mi SW 8.1 mph - N/A Snow Light Snow
2:35 PM 28.4 °F 20.4 °F 24.8 °F 86% 29.89 in 1.8 mi SW 8.1 mph - N/A Snow Light Snow
2:36 PM 28.4 °F 20.4 °F 24.8 °F 86% 29.89 in 2.0 mi SW 8.1 mph - N/A Snow Light Snow
2:37 PM 28.4 °F 21.2 °F 24.8 °F 86% 29.89 in 2.5 mi SW 6.9 mph - N/A Snow Light Snow
2:38 PM 28.4 °F 21.2 °F 24.8 °F 86% 29.89 in 3.0 mi SW 6.9 mph - N/A Snow Light Snow
2:39 PM 28.4 °F 21.2 °F 24.8 °F 86% 29.89 in 3.0 mi SW 6.9 mph - N/A Snow Light Snow
2:51 PM 28.4 °F 22.2 °F 26.6 °F 93% 29.89 in 5.0 mi SW 5.8 mph - N/A Snow Light Snow
2:55 PM 28.9 °F 21.9 °F 25.5 °F 87% 29.90 in 7.0 mi SW 6.9 mph - 0.00 in Snow Light Snow
2:59 PM 28.4 °F 23.3 °F 24.8 °F 86% 29.90 in 10.0 mi SW 4.6 mph - N/A Snow Light Snow
3:05 PM 28.4 °F 22.2 °F 24.8 °F 86% 29.90 in 10.0 mi South 5.8 mph - N/A Snow Light Snow
3:07 PM 26.6 °F 20.0 °F 24.8 °F 93% 29.90 in 10.0 mi South 5.8 mph - N/A   Scattered Clouds
3:55 PM 26.4 °F 17.3 °F 23.7 °F 90% 29.91 in 10.0 mi SSE 9.2 mph - 0.00 in   Partly Cloudy
4:55 PM 23.5 °F 13.0 °F 21.6 °F 92% 29.94 in 10.0 mi SSE 10.4 mph - N/A   Clear
5:12 PM 24.8 °F 16.9 °F 23.0 °F 93% 29.95 in 9.0 mi SSE 6.9 mph - N/A Snow Light Snow
5:15 PM 24.8 °F 16.9 °F 23.0 °F 93% 29.95 in 8.0 mi SSE 6.9 mph - N/A Snow Light Snow
5:27 PM 24.8 °F 19.1 °F 24.8 °F 100% 29.96 in 4.0 mi SSE 4.6 mph - N/A Snow Light Snow
5:29 PM 24.8 °F 19.1 °F 24.8 °F 100% 29.96 in 2.5 mi SE 4.6 mph - N/A Snow Light Snow
5:31 PM 24.8 °F 20.5 °F 24.8 °F 100% 29.96 in 1.8 mi ESE 3.5 mph - N/A Snow Light Snow
5:32 PM 26.6 °F 22.6 °F 24.8 °F 93% 29.96 in 1.5 mi ESE 3.5 mph - N/A Snow Light Snow
5:33 PM 26.6 °F 22.6 °F 24.8 °F 93% 29.96 in 1.2 mi ESE 3.5 mph - N/A Snow Light Snow
5:35 PM 26.6 °F 22.6 °F 24.8 °F 93% 29.96 in 1.2 mi SE 3.5 mph - N/A Snow Light Snow
5:36 PM 26.6 °F 22.6 °F 24.8 °F 93% 29.96 in 1.0 mi SSE 3.5 mph - N/A Snow Light Snow
5:38 PM 26.6 °F 21.2 °F 24.8 °F 93% 29.95 in 1.0 mi SSE 4.6 mph - N/A Snow Light Snow
5:39 PM 26.6 °F 21.2 °F 24.8 °F 93% 29.95 in 1.0 mi SSE 4.6 mph - N/A Snow Light Snow
5:40 PM 26.6 °F 22.6 °F 24.8 °F 93% 29.95 in 1.0 mi SE 3.5 mph - N/A Snow Light Snow
5:41 PM 26.6 °F 22.6 °F 24.8 °F 93% 29.95 in 1.2 mi SE 3.5 mph - N/A Snow Light Snow
5:46 PM 26.6 °F 22.6 °F 24.8 °F 93% 29.95 in 1.5 mi ESE 3.5 mph - N/A Snow Light Snow
5:48 PM 26.6 °F 22.6 °F 24.8 °F 93% 29.95 in 1.8 mi ESE 3.5 mph - N/A Snow Light Snow
5:50 PM 26.6 °F 22.6 °F 24.8 °F 93% 29.96 in 1.8 mi East 3.5 mph - N/A Snow Light Snow
5:53 PM 26.6 °F - 24.8 °F 93% 29.97 in 2.0 mi Calm Calm - N/A Snow Light Snow
5:55 PM 26.1 °F - 24.6 °F 94% 29.97 in 2.0 mi Calm Calm - 0.01 in Snow Light Snow
6:01 PM 26.6 °F - 24.8 °F 93% 29.97 in 2.5 mi Calm Calm - N/A Snow Light Snow
6:05 PM 26.6 °F - 24.8 °F 93% 29.97 in 3.0 mi Calm Calm - N/A Snow Light Snow
6:06 PM 26.6 °F - 24.8 °F 93% 29.97 in 3.0 mi Calm Calm - N/A Snow Light Snow
6:11 PM 24.8 °F - 24.8 °F 100% 29.97 in 5.0 mi Calm Calm - N/A Snow Light Snow
6:12 PM 24.8 °F - 24.8 °F 100% 29.97 in 5.0 mi Calm Calm - N/A Snow Light Snow
6:19 PM 24.8 °F 20.5 °F 24.8 °F 100% 29.97 in 10.0 mi SSE 3.5 mph - N/A   Mostly Cloudy
6:20 PM 24.8 °F 20.5 °F 24.8 °F 100% 29.97 in 10.0 mi SSE 3.5 mph - N/A   Scattered Clouds
6:21 PM 24.8 °F 20.5 °F 24.8 °F 100% 29.97 in 9.0 mi SSE 3.5 mph - N/A   Mostly Cloudy
6:24 PM 24.8 °F 20.5 °F 24.8 °F 100% 29.97 in 5.0 mi SSE 3.5 mph - N/A   Scattered Clouds
6:25 PM 24.8 °F 19.1 °F 24.8 °F 100% 29.98 in 3.0 mi SSE 4.6 mph - N/A   Scattered Clouds
6:28 PM 24.8 °F 19.1 °F 24.8 °F 100% 29.98 in 2.5 mi SSE 4.6 mph - N/A   Scattered Clouds
6:29 PM 24.8 °F 20.5 °F 24.8 °F 100% 29.98 in 2.0 mi SSE 3.5 mph - N/A   Scattered Clouds
6:31 PM 24.8 °F 19.1 °F 24.8 °F 100% 29.98 in 2.0 mi SSE 4.6 mph - N/A   Scattered Clouds
6:34 PM 24.8 °F 19.1 °F 24.8 °F 100% 29.98 in 1.8 mi SSE 4.6 mph - N/A   Partly Cloudy
6:35 PM 24.8 °F 19.1 °F 23.0 °F 93% 29.98 in 1.2 mi SSE 4.6 mph - N/A   Partly Cloudy
6:36 PM 24.8 °F 19.1 °F 23.0 °F 93% 29.98 in 1.0 mi SSE 4.6 mph - N/A   Partly Cloudy
6:37 PM 23.0 °F 17.0 °F 23.0 °F 100% 29.98 in 0.8 mi SE 4.6 mph - N/A   Partly Cloudy
6:42 PM 21.2 °F 14.9 °F 19.4 °F 93% 29.98 in 0.8 mi SSE 4.6 mph - N/A   Partly Cloudy
6:43 PM 21.2 °F 14.9 °F 19.4 °F 93% 29.99 in 0.5 mi SSE 4.6 mph - N/A Fog Light Freezing Fog
6:44 PM 21.2 °F 14.9 °F 19.4 °F 93% 29.99 in 0.8 mi SSE 4.6 mph - N/A   Partly Cloudy
6:46 PM 21.2 °F 14.9 °F 19.4 °F 93% 29.99 in 1.0 mi SSE 4.6 mph - N/A   Partly Cloudy
6:49 PM 21.2 °F 14.9 °F 21.2 °F 100% 29.99 in 0.8 mi SE 4.6 mph - N/A   Partly Cloudy
6:52 PM 21.2 °F 14.9 °F 19.4 °F 93% 30.00 in 0.5 mi SSE 4.6 mph - N/A Fog Light Freezing Fog
6:55 PM 21.6 °F 16.8 °F 19.9 °F 93% 30.00 in 0.5 mi SE 3.5 mph - 0.00 in Fog Light Freezing Fog
6:56 PM 21.2 °F 16.4 °F 19.4 °F 93% 30.00 in 0.5 mi SSE 3.5 mph - N/A Fog Light Freezing Fog
6:57 PM 23.0 °F 18.4 °F 21.2 °F 93% 30.00 in 0.5 mi SSE 3.5 mph - N/A Fog Light Freezing Fog
7:01 PM 23.0 °F 18.4 °F 23.0 °F 100% 29.99 in 0.8 mi SSE 3.5 mph - N/A   Scattered Clouds
7:04 PM 24.8 °F 20.5 °F 23.0 °F 93% 29.99 in 1.0 mi SSE 3.5 mph - N/A   Mostly Cloudy
7:05 PM 24.8 °F 20.5 °F 23.0 °F 93% 29.99 in 1.2 mi SSE 3.5 mph - N/A   Mostly Cloudy
7:07 PM 24.8 °F 20.5 °F 23.0 °F 93% 29.99 in 1.2 mi SSE 3.5 mph - N/A Snow Light Snow
7:08 PM 24.8 °F 20.5 °F 23.0 °F 93% 29.99 in 1.2 mi South 3.5 mph - N/A Snow Light Snow
7:11 PM 24.8 °F 20.5 °F 23.0 °F 93% 29.99 in 1.5 mi South 3.5 mph - N/A Snow Light Snow
7:13 PM 24.8 °F - 23.0 °F 93% 29.99 in 1.8 mi Calm Calm - N/A Snow Light Snow
7:14 PM 24.8 °F - 23.0 °F 93% 29.99 in 2.0 mi Calm Calm - N/A Snow Light Snow
7:20 PM 24.8 °F - 23.0 °F 93% 29.99 in 2.5 mi Calm Calm - N/A Snow Light Snow
7:22 PM 24.8 °F - 23.0 °F 93% 29.99 in 3.0 mi Calm Calm - N/A Snow Light Snow
7:23 PM 24.8 °F - 23.0 °F 93% 29.99 in 3.0 mi Calm Calm - N/A Snow Light Snow
7:26 PM 24.8 °F 20.5 °F 23.0 °F 93% 29.99 in 4.0 mi SSE 3.5 mph - N/A Snow Light Snow
7:27 PM 24.8 °F 20.5 °F 23.0 °F 93% 29.99 in 4.0 mi SSE 3.5 mph - N/A Snow Light Snow
7:28 PM 24.8 °F 20.5 °F 23.0 °F 93% 29.99 in 5.0 mi SSE 3.5 mph - N/A Snow Light Snow
7:33 PM 24.8 °F 19.1 °F 23.0 °F 93% 29.99 in 9.0 mi South 4.6 mph - N/A   Scattered Clouds
7:55 PM 22.8 °F 16.7 °F 21.4 °F 94% 29.99 in 7.0 mi South 4.6 mph - 0.00 in   Partly Cloudy
7:59 PM 23.0 °F 17.0 °F 21.2 °F 93% 30.00 in 5.0 mi South 4.6 mph - N/A   Partly Cloudy
8:00 PM 23.0 °F 17.0 °F 21.2 °F 93% 30.00 in 4.0 mi South 4.6 mph - N/A   Partly Cloudy
8:06 PM 23.0 °F 17.0 °F 21.2 °F 93% 30.00 in 2.5 mi South 4.6 mph - N/A   Partly Cloudy
8:08 PM 23.0 °F 17.0 °F 21.2 °F 93% 29.99 in 3.0 mi South 4.6 mph - N/A   Scattered Clouds
8:13 PM 23.0 °F 18.4 °F 21.2 °F 93% 29.99 in 4.0 mi South 3.5 mph - N/A   Mostly Cloudy
8:16 PM 23.0 °F - 21.2 °F 93% 30.00 in 5.0 mi Calm Calm - N/A   Mostly Cloudy
8:19 PM 23.0 °F - 21.2 °F 93% 29.99 in 6.0 mi Calm Calm - N/A   Mostly Cloudy
8:20 PM 23.0 °F - 21.2 °F 93% 30.01 in 6.0 mi Calm Calm - N/A   Mostly Cloudy
8:22 PM 23.0 °F - 21.2 °F 93% 30.01 in 7.0 mi Calm Calm - N/A   Mostly Cloudy
8:45 PM 23.0 °F 15.8 °F 23.0 °F 100% 29.99 in 10.0 mi East 5.8 mph - N/A   Mostly Cloudy
8:50 PM 23.0 °F 14.7 °F 23.0 °F 100% 29.99 in 10.0 mi ESE 6.9 mph - N/A   Mostly Cloudy
8:55 PM 23.4 °F 16.2 °F 22.1 °F 95% 30.00 in 10.0 mi ESE 5.8 mph - N/A   Mostly Cloudy
9:13 PM 23.0 °F 15.8 °F 23.0 °F 100% 30.01 in 10.0 mi SE 5.8 mph - N/A   Overcast
9:22 PM 23.0 °F 18.4 °F 23.0 °F 100% 30.01 in 10.0 mi SE 3.5 mph - N/A   Overcast
9:24 PM 23.0 °F 18.4 °F 21.2 °F 93% 30.01 in 10.0 mi SE 3.5 mph - N/A   Overcast
9:32 PM 23.0 °F 17.0 °F 21.2 °F 93% 30.01 in 10.0 mi South 4.6 mph - N/A   Overcast
9:39 PM 24.8 °F 14.0 °F 23.0 °F 93% 30.02 in 10.0 mi South 11.5 mph - N/A Snow Light Snow
9:49 PM 26.6 °F 16.8 °F 24.8 °F 93% 30.02 in 7.0 mi South 10.4 mph - N/A Snow Light Snow
9:50 PM 26.6 °F 16.8 °F 24.8 °F 93% 30.02 in 7.0 mi South 10.4 mph - N/A Snow Light Snow
9:55 PM 26.1 °F 16.2 °F 25.3 °F 97% 30.02 in 7.0 mi South 10.4 mph - 0.00 in Snow Light Snow
10:00 PM 26.6 °F 18.2 °F 24.8 °F 93% 30.03 in 8.0 mi South 8.1 mph - N/A Snow Light Snow
10:43 PM 24.8 °F 16.9 °F 23.0 °F 93% 30.04 in 5.0 mi South 6.9 mph - N/A Snow Light Snow
10:45 PM 24.8 °F 16.9 °F 23.0 °F 93% 30.04 in 5.0 mi SSE 6.9 mph - N/A Snow Light Snow
10:55 PM 24.8 °F 17.9 °F 23.0 °F 93% 30.03 in 6.0 mi SE 5.8 mph - 0.00 in Snow Light Snow
10:56 PM 24.8 °F 17.9 °F 23.0 °F 93% 30.04 in 6.0 mi SE 5.8 mph - N/A Snow Light Snow
10:58 PM 24.8 °F 16.9 °F 23.0 °F 93% 30.03 in 7.0 mi SE 6.9 mph - N/A Snow Light Snow
11:03 PM 24.8 °F 16.9 °F 23.0 °F 93% 30.04 in 9.0 mi SE 6.9 mph - N/A   Scattered Clouds
11:08 PM 23.0 °F 17.0 °F 21.2 °F 93% 30.04 in 10.0 mi ESE 4.6 mph - N/A   Mostly Cloudy
11:23 PM 24.8 °F 17.9 °F 23.0 °F 93% 30.04 in 8.0 mi ESE 5.8 mph - N/A   Mostly Cloudy
11:25 PM 24.8 °F 17.9 °F 23.0 °F 93% 30.04 in 8.0 mi SE 5.8 mph - N/A   Mostly Cloudy
11:26 PM 24.8 °F 17.9 °F 23.0 °F 93% 30.04 in 9.0 mi SSE 5.8 mph - N/A   Mostly Cloudy
11:35 PM 23.0 °F 13.1 °F 23.0 °F 100% 30.04 in 10.0 mi SSE 9.2 mph - N/A   Overcast
11:43 PM 24.8 °F 14.6 °F 24.8 °F 100% 30.03 in 8.0 mi South 10.4 mph - N/A Snow Light Snow
11:49 PM 26.6 °F 16.8 °F 24.8 °F 93% 30.03 in 6.0 mi South 10.4 mph - N/A Snow Light Snow
11:54 PM 26.6 °F 16.8 °F 24.8 °F 93% 30.03 in 4.0 mi South 10.4 mph - N/A Snow Light Snow
11:55 PM 26.1 °F 16.8 °F 25.2 °F 96% 30.03 in 3.0 mi South 9.2 mph - 0.00 in Snow Light Snow
11:56 PM 26.6 °F 17.5 °F 24.8 °F 93% 30.03 in 2.5 mi South 9.2 mph - N/A Snow Light Snow
11:58 PM 26.6 °F 17.5 °F 24.8 °F 93% 30.03 in 1.8 mi South 9.2 mph - N/A Snow Light Snow